Location: ????????
(55.7667°N, 37.4833°E)
Time: 04:05:14
(UTC+00:00)

Cosmos 494 Rocket - Pass Details

Date: 19 May 2025
Orbit: 737 x 767 km, 74.1° (Epoch: 15 June)

Event Time Altitude Azimuth Distance (km) Brightness Sun altitude
Exits shadow 22:27:56 19° 193° (SSW) 1,702 5.1 -13.1°
Maximum altitude 22:31:33 70° 114° (ESE) 798 4.0 -13.0°
Drops below altitude 10° 22:36:41 10° 31° (NNE) 2,284 7.8 -12.8°
Sets 22:39:04 0° 30° (NNE) 3,217 9.0 -12.7°
